Regional Weather Roundup
Issued by NWS

Home | Current Version | Previous Version | Graphics & Text | Print | Product List | Glossary On
Versions: 1 2 3 4 5 6 7 8 9 10 11 12 13 14 15 16 17 18 19 20 21 22 23 24 25 26 27 28 29 30 31 32 33 34 35 36 37 38 39 40 41 42 43 44 45 46 47 48 49 50
000
ASUS43 KTOP 201359
RWRKS

WEATHER ROUNDUP FOR KANSAS
NATIONAL WEATHER SERVICE GOODLAND KS
900 AM CDT SUN AUG 20 2017

NOTE:  "FAIR" INDICATES FEW OR NO CLOUDS BELOW 12,000 FEET WITH NO
SIGNIFICANT WEATHER AND/OR OBSTRUCTIONS TO VISIBILITY.

KSZ001>006-013>018-027>032-041>047-201500-
NORTHWEST KANSAS

CITY           SKY/WX    TMP DP  RH WIND       PRES   REMARKS
GOODLAND       SUNNY     70  56  61 N6        29.96R
HAYS           SUNNY     78  67  68 S12       29.93R
HILL CITY      SUNNY     78  66  66 SW13      29.91R
RUSSELL        SUNNY     78  67  68 S13       29.92R
$$

KSZ061>065-074>080-084>089-201500-
SOUTHWEST KANSAS

CITY           SKY/WX    TMP DP  RH WIND       PRES   REMARKS
DODGE CITY     SUNNY     78  65  63 S12       29.98R
ELKHART          N/A     69  63  81 SW12        N/A
GARDEN CITY    SUNNY     73  66  78 S10       29.96S
GREAT BEND     SUNNY     77  68  73 S12       29.95R
LIBERAL        MOSUNNY   74  66  76 S16       30.00
$$

KSZ066>073-081>083-090>101-201500-
SOUTHEAST KANSAS

CITY           SKY/WX    TMP DP  RH WIND       PRES   REMARKS
CHANUTE        SUNNY     83  72  69 N6        30.02R
COFFEYVILLE    SUNNY     83  76  79 S7        29.99R
HUTCHINSON     SUNNY     77  68  73 S9        29.96R
MEDICINE LODGE   N/A     75  68  78 S6        29.96R
NEWTON         SUNNY     78  69  73 S12       29.98R
PARSONS        SUNNY     81  75  82 VRB3      30.01R
WICHITA INTL   PTSUNNY   79  70  74 S8        29.97R
WICHITA JABRA  SUNNY     79  70  74 S9        29.98R
WICHITA MCCONL SUNNY     78  68  69 SW9       29.98R
WINFIELD       SUNNY     80  71  74 S6        29.99R
$$

KSZ007>012-019>026-033>040-048>060-102>105-201500-
NORTHEAST KANSAS

CITY           SKY/WX    TMP DP  RH WIND       PRES   REMARKS
CONCORDIA      SUNNY     71  67  87 SE15      29.93F
EMPORIA        MOSUNNY   77  67  71 E10       30.00R
LAWRENCE       CLOUDY    73  69  87 VRB6      30.02R
MANHATTAN      MOSUNNY   76  68  76 SE7       29.95F
OLATHE IND     MOSUNNY   72  65  78 E8        30.04R
OLATHE EXE     CLOUDY    72  67  84 NE9       30.04R
SALINA         SUNNY     82  70  66 SE13      29.95R
TOPEKA BILLARD CLOUDY    72  70  93 E10       30.00R
TOPEKA FORBES  CLOUDY    74  68  81 E10       30.00R
$$



USA.gov is the U.S. government's official web portal to all federal, state and local government web resources and services.